Burlington, VT

1:06 AM EST on December 11, 2017 (GMT -0500)
Burlington International

Weather History for KBTV - May, 2014

Change the Weather History Date:

Monday, May 12, 2014

  Actual Average Record
Temperature  
Mean Temperature 62 °F 55 °F  
Max Temperature 76 °F 66 °F 84 °F (2004)
Min Temperature 47 °F 44 °F 28 °F (1963)
Degree Days  
Heating Degree Days 3 10  
Month to date heating degree days 113 144  
Since 1 July heating degree days 7505 7218  
Cooling Degree Days 0 0  
Month to date cooling degree days 6 0  
Year to date cooling degree days 6 2  
Growing Degree Days 10 (Base 50)    
Moisture  
Dew Point 41 °F    
Average Humidity 50    
Maximum Humidity 71    
Minimum Humidity 29    
Precipitation  
Precipitation 0.00 in 0.11 in 1.78 in (1981)
Month to date precipitation 0.80 1.23  
Year to date precipitation 10.62 10.09  
Snow  
Snow 0.00 in 0.00 in 0.30 in (1996)
Month to date snowfall 0.0 0.0  
Since 1 July snowfall 86.5 81.2  
Snow Depth 0.00 in    
Sea Level Pressure  
Sea Level Pressure 30.07 in    
Wind  
Wind Speed 6 mph (North)    
Max Wind Speed 16 mph    
Max Gust Speed 20 mph    
Visibility 10 miles    
Events      
T = Trace of Precipitation, MM = Missing Value Source: NWS Daily Summary

Daily Weather History Graph

Daily Weather History Graph

Search for Another Location

Airport or City:

Trip Planner

Search our weather history database for the weather conditions in past years. The results will help you decide how hot, cold, wet, or windy it might be!

Date:

Astronomy

May. 12, 2014 Rise Set
Actual Time 5:28 AM EDT 8:10 PM EDT
Civil Twilight 4:55 AM EDT 8:43 PM EDT
Nautical Twilight 4:13 AM EDT 9:25 PM EDT
Astronomical Twilight 3:24 AM EDT 10:14 PM EDT
Moon 6:00 PM EDT (5/12) 4:12 AM EDT (5/12)
Length of Visible Light 15h 48m
Length of Day
14h 41m
Waxing Gibbous, 95% of the Moon is Illuminated
May 12
Waxing Gibbous
May 14
Full
May 21
Last Quarter
May 28
New
Jun 5
First Quarter

Hourly Weather History & Observations

Time (EDT) Temp. Dew Point Humidity Pressure Visibility Wind Dir Wind Speed Gust Speed Precip Events Conditions
12:54 AM 60.1 °F 37.0 °F 42% 30.01 in 10.0 mi Calm Calm - N/A   Clear
1:54 AM 53.1 °F 39.9 °F 61% 30.02 in 10.0 mi NNE 4.6 mph - N/A   Clear
2:54 AM 50.0 °F 41.0 °F 71% 30.03 in 10.0 mi East 4.6 mph - N/A   Clear
3:54 AM 50.0 °F 39.9 °F 68% 30.04 in 10.0 mi NE 3.5 mph - N/A   Clear
4:54 AM 48.0 °F 39.9 °F 74% 30.05 in 10.0 mi ESE 3.5 mph - N/A   Clear
5:54 AM 48.0 °F 39.9 °F 74% 30.06 in 10.0 mi Calm Calm - N/A   Clear
6:54 AM 51.1 °F 39.9 °F 66% 30.08 in 10.0 mi Calm Calm - N/A   Scattered Clouds
7:54 AM 55.9 °F 42.1 °F 60% 30.10 in 10.0 mi Calm Calm - N/A   Mostly Cloudy
8:54 AM 61.0 °F 41.0 °F 48% 30.10 in 10.0 mi North 3.5 mph - N/A   Scattered Clouds
9:54 AM 64.4 °F 39.2 °F 40% 30.09 in 10.0 mi Calm Calm - N/A   Partly Cloudy
10:54 AM 68.0 °F 39.0 °F 35% 30.09 in 10.0 mi NW 5.8 mph - N/A   Partly Cloudy
11:54 AM 72.0 °F 37.9 °F 29% 30.08 in 10.0 mi Variable 4.6 mph - N/A   Partly Cloudy
12:54 PM 73.0 °F 41.0 °F 31% 30.07 in 10.0 mi NW 11.5 mph - N/A   Scattered Clouds
1:54 PM 73.0 °F 42.1 °F 33% 30.06 in 10.0 mi NNW 6.9 mph - N/A   Scattered Clouds
2:54 PM 73.0 °F 41.0 °F 31% 30.06 in 10.0 mi NNW 9.2 mph - N/A   Mostly Cloudy
3:54 PM 75.0 °F 43.0 °F 32% 30.05 in 10.0 mi NNW 10.4 mph - N/A   Mostly Cloudy
4:54 PM 75.0 °F 43.0 °F 32% 30.06 in 10.0 mi North 12.7 mph 19.6 mph N/A   Mostly Cloudy
5:54 PM 72.0 °F 41.0 °F 33% 30.07 in 10.0 mi North 13.8 mph - N/A   Mostly Cloudy
6:54 PM 69.1 °F 39.9 °F 35% 30.09 in 10.0 mi North 10.4 mph - N/A   Mostly Cloudy
7:54 PM 68.0 °F 41.0 °F 37% 30.09 in 10.0 mi North 5.8 mph - N/A   Mostly Cloudy
8:54 PM 66.0 °F 42.1 °F 42% 30.10 in 10.0 mi North 4.6 mph - N/A   Mostly Cloudy
9:54 PM 64.9 °F 42.1 °F 43% 30.10 in 10.0 mi ENE 3.5 mph - N/A   Partly Cloudy
10:54 PM 64.0 °F 43.0 °F 46% 30.10 in 10.0 mi NW 5.8 mph - N/A   Clear
11:54 PM 60.1 °F 46.0 °F 60% 30.11 in 10.0 mi West 4.6 mph - N/A   Overcast